Date,TemperatureHighF,TemperatureAvgF,TemperatureLowF,DewpointHighF,DewpointAvgF,DewpointLowF,HumidityHigh,HumidityAvg,HumidityLow,PressureMaxIn,PressureMinIn,WindSpeedMaxMPH,WindSpeedAvgMPH,GustSpeedMaxMPH,PrecipitationSumIn
2013-1-1,20.1,15.4,8.5,16.6,10.0,5.1,87,79,63,30.31,30.15,13,4,19,0.00
2013-1-2,30.4,18.5,6.3,21.7,13.1,3.8,90,80,65,30.26,30.13,10,5,19,0.00
2013-1-3,30.8,24.5,11.8,26.8,20.4,8.7,92,85,70,30.35,30.15,21,9,29,0.00
2013-1-4,33.0,21.8,9.4,25.7,17.6,6.7,89,84,73,30.35,30.26,16,8,26,0.00
2013-1-5,37.3,30.1,20.0,35.2,27.6,18.0,96,90,79,30.26,29.99,14,6,23,0.01
2013-1-6,35.6,24.8,18.5,33.4,21.2,15.3,95,86,75,30.35,29.98,22,11,31,0.00
2013-1-7,40.5,29.4,17.8,30.7,24.4,15.4,92,82,62,30.35,30.11,11,8,22,0.00
2013-1-8,45.7,36.0,27.7,34.6,30.0,24.9,90,79,62,30.15,30.03,18,8,26,0.00
2013-1-9,48.0,38.2,30.0,37.4,31.6,27.9,96,78,54,30.50,30.05,20,7,29,0.00
2013-1-10,47.6,36.8,30.1,47.2,32.3,24.4,99,84,60,30.48,29.79,9,4,21,0.79
2013-1-11,54.8,50.5,44.5,51.9,48.7,44.1,99,94,85,29.79,29.65,16,9,27,0.30
2013-1-12,52.8,38.4,24.2,48.5,34.2,22.2,92,85,77,29.99,29.68,20,10,27,0.00
2013-1-13,24.2,18.1,11.6,21.4,14.3,8.2,92,85,78,30.31,29.92,18,12,24,0.00
2013-1-14,24.3,16.3,9.8,14.8,11.0,7.1,89,80,60,30.51,30.31,10,3,15,0.00
2013-1-15,30.2,20.7,11.7,19.0,14.4,8.4,88,77,59,30.46,30.16,5,2,11,0.00
2013-1-16,37.5,27.4,15.1,30.3,21.3,11.4,88,78,58,30.16,29.91,20,8,30,0.01
2013-1-17,33.8,28.2,21.1,30.7,22.3,16.9,93,79,57,30.44,30.09,17,8,24,0.00
2013-1-18,46.9,35.0,21.5,33.8,26.8,17.0,87,73,59,30.45,29.97,13,7,33,0.01
2013-1-19,50.8,41.9,28.0,40.8,33.6,17.2,82,72,61,30.09,29.78,31,12,45,0.01
2013-1-20,28.0,17.6,13.6,17.9,10.4,6.7,85,73,57,30.34,30.09,33,14,43,0.00
2013-1-21,14.2,8.4,4.0,11.4,1.0,-3.6,89,72,52,30.39,30.25,25,17,36,0.00
2013-1-22,14.5,8.5,0.6,4.5,-0.4,-5.5,80,67,50,30.49,30.37,14,9,22,0.00
2013-1-23,33.2,20.2,12.9,19.1,10.1,3.5,79,65,51,30.40,30.14,22,9,33,0.00
2013-1-24,22.2,15.6,6.5,11.0,5.0,-1.2,80,63,46,30.66,30.31,15,4,23,0.00
2013-1-25,37.3,26.5,18.3,22.0,16.0,9.5,80,65,49,30.31,30.02,18,10,29,0.00
2013-1-26,32.0,21.4,9.0,18.3,11.7,5.3,86,67,46,30.42,30.24,13,4,18,0.00
2013-1-27,43.9,33.0,27.5,43.4,28.6,18.3,98,84,67,30.35,29.87,17,10,28,0.27
2013-1-28,55.8,48.9,43.9,55.5,48.5,43.4,99,99,98,29.93,29.72,15,6,26,0.01
2013-1-29,64.6,56.6,43.0,61.3,55.6,42.2,99,97,89,29.72,29.37,15,7,24,1.20
2013-1-30,36.0,26.0,17.3,35.5,23.5,13.3,98,90,83,29.79,29.28,30,22,43,0.17
2013-1-31,20.9,12.8,3.8,18.3,8.3,-1.1,91,82,74,30.32,29.79,25,19,37,0.00